Regional Weather Roundup
Issued by NWS Portland, ME

Current Version | Previous Version | Text Only | Print | Product List | Glossary On
Versions: 1 2 3 4 5 6 7 8 9 10 11 12 13 14 15 16 17 18 19 20 21 22 23 24 25 26 27 28 29 30 31 32 33 34 35 36 37 38 39 40 41 42 43 44 45 46 47 48 49 50
000 ASUS41 KGYX 280305 RWRGYX WEATHER ROUNDUP FOR MAINE AND NEW HAMPSHIRE NATIONAL WEATHER SERVICE GRAY ME 1100 PM EDT WED AUG 27 2014 MEZ002-005-006-010-012-015-018-020-021-024-026-027-029-280400- MAINE CITY SKY/WX TMP DP RH WIND PRES REMARKS PORTLAND MOCLDY 69 65 86 N5 29.84F SANFORD PTCLDY 73 64 73 NW8 29.84S BAR HARBOR PTCLDY 64 63 94 CALM 29.84R WISCASSET CLOUDY 72 65 78 CALM 29.85S ROCKLAND MOCLDY 72 64 78 N3 29.81F FRYEBURG CLOUDY 70 62 76 CALM 29.87F LEWISTONAUBURN CLOUDY 73 61 64 N3 29.86F AUGUSTA LGT RAIN 71 62 73 N3 29.86S WATERVILLE CLOUDY 68 63 83 CALM 29.82S BANGOR MOCLDY 69 59 70 NW5 29.85S GREENVILLE N/A 65 57 75 CALM 29.87F MILLINOCKET CLOUDY 70 56 61 CALM 29.86F HOULTON CLOUDY 63 58 83 CALM 29.83S PRESQUE ISLE CLOUDY 64 55 72 CALM 29.84S FRENCHVILLE CLOUDY 61 53 75 NW6 29.85S CARIBOU CLOUDY 62 56 80 W5 29.84S $$ NHZ002-005-008-009-011-012-014-280400- NEW HAMPSHIRE CITY SKY/WX TMP DP RH WIND PRES REMARKS PORTSMOUTH MOCLDY 76 69 78 W8 29.81F ROCHESTER PTCLDY 73 66 78 NW9 29.84F NASHUA PTCLDY 76 69 79 CALM 29.85F MANCHESTER PTCLDY 77 67 71 NW8 29.84S CONCORD CLEAR 71 67 87 NW6 29.85F LACONIA MOCLDY 70 64 83 CALM 29.85F PLYMOUTH FAIR 67 65 94 NW5 29.89S BERLIN CLOUDY 63 61 93 CALM 29.92S WHITEFIELD LGT RAIN 66 59 78 CALM 29.92F JAFFREY CLEAR 69 65 86 CALM 29.91F LEBANON MOCLDY 69 65 86 N5 29.89F MT WASHINGTON FOG 48 48 100 W33 N/A VSB 0 $$ VTZ005-007-008-280400- VERMONT CITY SKY/WX TMP DP RH WIND PRES REMARKS ST JOHNSBURY N/A 66 59 78 MISG 29.90F MONTPELIER CLOUDY 63 59 87 CALM 29.97F BURLINGTON MOCLDY 70 59 68 CALM 29.93S $$ MAZ007-012-024-CTZ003-RIZ002-NYZ038-NYZ072-280400- SOUTHERN NEW ENGLAND AND NY CITY SKY/WX TMP DP RH WIND PRES REMARKS BOSTON CLOUDY 74 70 87 SW10 29.84F WORCESTER PTCLDY 69 68 96 W7 29.90F NANTUCKET FOG 67 66 97 S7 29.89S VSB 1/4 PROVIDENCE MOCLDY 73 62 68 S7 29.88F HARTFORD MOCLDY 74 71 91 W5 29.87F ALBANY CLOUDY 69 56 62 W10 29.92F NEW YORK CITY MOCLDY 78 66 66 E5 29.87F $$ ANZ081-ANZ082-ANZ150-NHZ014-MEZ023>029-280400- COASTAL MARINE OBSERVATIONS STATION/POSITION TIME TEMP WIND PRES WAVE AIR SEA DIR/SP/G HT/PER (UTC) (F) (DEG/KT/KT) (MB) (FT/S) MATINICUS ROCK 0200 220/ 11/ 12 1009.5S PORTLAND WX BUOY 0250 70 62 350/ 17/ 23 1009.4F 3/13 WELLS 0200 78 58 280/ 3/ 5 1009.3F ISLE OF SHOALS 0200 78 260/ 13/ 13 1009.5F JEFFREYS LEDGE 0221 67 N/A 3/13 CASHES LEDGE BUO 0250 70 67 1009.0F 5/13 $$ .............KEY.............. WCI - WIND CHILL TC - TEMPERATURE IN CELSIUS VSB - VISIBILITY IN MILES HX - HEAT INDEX FAIR- INDICATES FEW OR NO CLOUDS BELOW 12,000 FT, WITH NO SIGNIFICANT WEATHER AND/OR OBSTRUCTIONS TO VISIBILITY.

USA.gov is the U.S. government's official web portal to all federal, state and local government web resources and services.